Regional Weather Roundup
Issued by NWS

Home | Current Version | Previous Version | Graphics & Text | Print | Product List | Glossary On
Versions: 1 2 3 4 5 6 7 8 9 10 11 12 13 14 15 16 17 18 19 20 21 22 23 24 25 26 27 28
000
ASUS45 KSLC 282310
RWRUT

UTAH REGIONAL WEATHER ROUNDUP
NATIONAL WEATHER SERVICE SALT LAKE CITY UT
500 PM MDT FRI APR 28 2017

UTZ001>011-023>025-290000-

NORTHERN UTAH

CITY           SKY/WX    TMP DP  RH WIND       PRES   REMARKS
BRIGHAM CITY   CLOUDY    43  34  72 N16G25    29.96R
HILL AFB       PTSUNNY   42  31  65 N23       29.93S
LOGAN          CLOUDY    42  37  82 NE9       29.95S
OGDEN          CLOUDY    43  33  68 N22G29    29.93R
SALT LAKE CITY CLOUDY    41  36  82 NE7       29.94S
TOOELE VALLEY  CLOUDY    45  32  61 N14G23    29.96F
WENDOVER       PTSUNNY   52  16  24 N18G24    29.97S
HEBER CITY     CLOUDY    43  25  49 N10       29.86R
WEST JORDAN    CLOUDY    44  40  88 NW15G28   29.94S

$$

UTZ011>015-024>027-290000-

CENTRAL/NORTHEAST UTAH

CITY           SKY/WX    TMP DP  RH WIND       PRES   REMARKS
PROVO AIRPORT  CLOUDY    39  34  81 NW28G35   29.93S WCI  28
MOAB/CANYONLAN MOSUNNY   54  16  22 NW16G25   29.73R
DELTA          CLOUDY    41  30  65 N18G28    29.93R
PRICE          MOSUNNY   46  20  35 NW17G30   29.79S
ROOSEVELT      CLOUDY    48  21  34 SE7       29.82R
VERNAL         PTSUNNY   46  28  49 E3        29.81S

$$

UTZ013>016-019>022-027-290000-

SOUTHERN UTAH

CITY           SKY/WX    TMP DP  RH WIND       PRES   REMARKS
BRYCE CANYON   CLOUDY    40  14  34 NW26G37   29.83S WCI  29
CEDAR CITY     PTSUNNY   43  27  53 NW17      29.90S
MILFORD        PTSUNNY   47  17  30 N24G35    29.90S
ST GEORGE      CLOUDY    56  21  25 SE3       29.88R
HANKSVILLE     CLOUDY    45  23  42 CALM      29.80R
BLANDING       CLOUDY    43  10  25 W9        29.82R

$$

REGIONAL REPORTS     COLORADO/ARIZONA

CITY           SKY/WX    TMP DP  RH WIND       PRES   REMARKS
CRAIG, CO      CLOUDY    41  23  48 N5        29.79S
GRAND JUNCTION SUNNY     52  12  20 W12       29.74S
RIFLE, CO      CLOUDY    44  27  51 N13G21    29.78S
MONTROSE, CO   CLOUDY    43  21  41 SW14      29.77R
CORTEZ, CO     MOSUNNY   45  18  34 N13G22    29.76F
COLORADO CITY    N/A     54  19  26 NW17G30   29.88S
PAGE, AZ       MOSUNNY   57  10  15 W15G24    29.77R
GRAND CANYON   MOSUNNY   46  11  24 N20G28    29.81R
KINGMAN, AZ    SUNNY     65   6  10 N25G43    29.81F
FLAGSTAFF, AZ  CLOUDY    46   4  17 N10G20    29.75R

$$

REGIONAL REPORTS    NEVADA/IDAHO/WYOMING

CITY           SKY/WX    TMP DP  RH WIND       PRES   REMARKS
LAS VEGAS, NV  MOSUNNY   70   4   7 N25G36    29.82F
ELY, NY        MOSUNNY   41  16  36 N16G26    29.97F
ELKO, NV       MOSUNNY   45  26  47 W17       30.05S
POCATELLO, ID  CLOUDY    48  29  47 MISG      29.97S
BURLEY, ID     CLOUDY    53  24  32 W14G22    29.97F
EVANSTON, WY   LGT SNOW  32  29  88 N20G31    29.87R VSB 3/4 WCI  20
ROCK SPRINGS,  CLOUDY    34  26  72 NE23G29   29.87R WCI  22
KEMMERER, WY   SNOW      32  28  86 E14       29.89R VSB 1/2 WCI  22

$$




USA.gov is the U.S. government's official web portal to all federal, state and local government web resources and services.